Regional Weather Roundup
Issued by NWS Green Bay, WI

Home | Current Version | Previous Version | Text Only | Print | Product List | Glossary On
Versions: 1 2 3 4 5 6 7 8 9 10 11 12 13 14 15 16 17 18 19 20 21 22 23 24 25 26 27 28 29 30 31 32 33 34 35 36 37 38 39 40 41 42 43 44 45 46 47 48 49 50
000
ASUS43 KGRB 231710
RWRGRB

NORTH-CENTRAL AND NORTHEAST WISCONSIN REGIONAL WEATHER ROUNDUP
NATIONAL WEATHER SERVICE GREEN BAY WI
1200 PM CDT THU OCT 23 2014

WIZ005-009-010>012-018-019-231800-
NORTH CENTRAL WISCONSIN

CITY           SKY/WX    TMP DP  RH WIND       PRES   REMARKS
IRONWOOD       CLOUDY    46  45  93 S9        29.98F
MANITOWISH WTR LGT RAIN  43  43 100 S6        30.02F
ARBOR VITAE    LGT RAIN  45  43  93 S9        30.03S
EAGLE RIVER    RAIN      44  43  97 S6        30.03F
LAND O LAKES   DRIZZLE   46  43  90 S7        30.03F
RHINELANDER    LGT RAIN  43  41  93 S8        30.05F FOG
PHILLIPS       CLOUDY    44  43  98 S6        30.03S FOG
ANTIGO         RAIN      40  39  98 S8        30.08S
TOMAHAWK       DRIZZLE   43  41  94 CALM      30.06S
MERRILL        HVY RAIN  43  43  99 S5        30.07S
$$

WIZ013-073-231800-
NORTHEAST WISCONSIN

CITY           SKY/WX    TMP DP  RH WIND       PRES   REMARKS
IRON MOUNTAIN  LGT RAIN  44  38  79 SE8       30.07F
MARINETTE      MOSUNNY   54  39  58 SW13G20   30.11S
OCONTO         PTSUNNY   53  40  61 S7        30.11S
$$

WIZ017-030-035>037-045-231800-
CENTRAL WISCONSIN

CITY           SKY/WX    TMP DP  RH WIND       PRES   REMARKS
MEDFORD        DRIZZLE   43  42  96 S8        30.04F
WAUSAU         RAIN      44  42  93 S6        30.06F FOG
MOSINEE        RAIN      43  43 100 S8        30.08F
MARSHFIELD     LGT RAIN  45  43  93 S8        30.06F FOG
WISC RAPIDS    LGT RAIN  45  43  93 S8        30.09F FOG
STEVENS POINT  LGT RAIN  42  40  96 S6        30.09F
WAUPACA        RAIN      46  44  93 S3        30.12S
SHAWANO        CLOUDY    50  40  67 SW3       30.11S
CLINTONVILLE   RAIN      45  41  87 S6        30.11S
$$

WIZ038-039-048-051-231800-
FOX VALLEY

CITY           SKY/WX    TMP DP  RH WIND       PRES   REMARKS
NWS GREEN BAY  PTSUNNY   54  41  61 S7        30.12F
APPLETON       PTSUNNY   52  39  62 S10       30.12F
OSHKOSH        CLOUDY    51  41  68 S10       30.11F
FOND DU LAC    CLOUDY    52  39  61 S12       30.11F
$$

WIZ022-050-052-231800-
EAST CENTRAL WISCONSIN

CITY           SKY/WX    TMP DP  RH WIND       PRES   REMARKS
STURGEON BAY   SUNNY     54  41  62 S10       30.13S
MANITOWOC      MOSUNNY   55  42  61 S12       30.13F
SHEBOYGAN      PTSUNNY   56  41  57 S10       30.14F
$$

LMZ563-521-522-541>543-231800-
LAKESHORE

STATION/POSITION TIME  TEMP    WIND        PRES    VSBY  WAVE
                       AIR SEA DIR/SP/G                  HT/PER
                 (UTC) (F)     (DEG/KT/KT) (MB)    (MI)  (FT/S)
SHEBOYGAN LKSHOR 1700   49 50  170/ 16/ 17 1021.1F
KEWAUNEE LKSHORE 1700   51     180/ 12/ 15 1019.6F
ALGOMA MARINA    1600          220/ 21/ 24   N/A
NORTHPORT PIER   1700   53     150/ 11/ 17 1020.0F
N MID LAKE BUOY  1700   49 51  190/ 16/ 17 1021.0F         3/ 5
SISTER BAY LKSHO 1700          190/ 16/ 18   N/A
CHAMBERS ISLAND  1700   54     170/ 10/ 17 1020.0F
MENOMINEE LKSHOR 1700   52     170/  9/ 15 1020.3S
$$



USA.gov is the U.S. government's official web portal to all federal, state and local government web resources and services.